User: anonymous   Login
Location: Unspecified
(0.0000°N, 0.0000°E)
Time: 09:29:30
(UTC+00:00)
Language:

TRS 6 - Orbit

View from above orbital plane
View from above orbital plane
View from above satellite
View from above satellite

Ground track
Ground track

The orbit data is extracted from the following two-line orbital elements,

1   608U 63014C   17294.56375059 -.00000008 +00000-0 -51046-2 0  9999
2   608 087.3259 135.2090 0037724 014.6833 345.5109 08.65281543720107
Epoch (UTC): 21 October 2017 13:31:48
Eccentricity: 0.0037724
inclination: 87.3259°
perigee height: 3606 km
apogee height: 3682 km
right ascension of ascending node: 135.2090°
argument of perigee: 14.6833°
revolutions per day: 8.65281543
mean anomaly at epoch: 345.5109°
orbit number at epoch: 72010

The dashed part of the orbit path shows where the satellite is in the earth's shadow,  

DLR